Location: B?l�
(48.7957°N, 13.9630°E)
Time: 17:59:13
(UTC+00:00)

Daily predictions for brighter satellites

Satellite Brightness Start Highest point End
(mag) Time Altitude Azimuth Time Altitude Azimuth Time Altitude Azimuth
Cosmos 1745 Rocket 4.0 19:41:32 10° S 19:47:41 71° E 19:53:56 10° NNE
Landsat 7 4.0 19:44:03 10° SSE 19:48:43 59° ENE 19:53:25 10° N
Cosmos 1125 Rocket 4.4 19:45:37 10° NNW 19:50:40 49° WSW 19:55:43 10° S
USA 267 3.9 19:49:49 10° E 19:56:11 55° NNE 20:02:32 10° WNW
Meteor 1-21 Rocket 4.4 19:50:51 10° S 19:56:46 85° E 20:02:44 10° NNE
SPOT 1/Viking Rocket 3.8 19:52:04 10° SSE 19:57:07 61° ENE 20:02:14 10° N
Alouette 2 Rocket 3.7 19:57:01 10° N 20:00:44 61° ENE 20:05:37 10° SSE
Cosmos 1953 Rocket 4.2 19:57:01 10° SSE 20:00:57 36° E 20:04:55 10° NNE
Cosmos 2322 Rocket 2.7 19:56:51 10° SW 20:02:25 65° WNW 20:08:02 10° NNE
SL-08 ROCKET BODY 4.5 19:57:12 10° S 20:03:10 89° WNW 20:09:16 10° N
NOSS 7 (D) 3.7 20:01:41 10° SW 20:04:29 80° SE 20:07:10 10° NE
Cosmos 2237 4.2 19:59:22 10° SSW 20:05:06 81° ESE 20:10:53 10° NNE
Cosmos 2084 4.3 20:02:37 10° NW 20:06:55 45° NE 20:11:11 10° ESE
Cosmos 1328 3.9 20:03:21 10° S 20:07:15 60° E 20:11:11 10° NNE
SAR-Lupe-2 4.0 20:06:11 10° NNE 20:09:38 42° E 20:13:02 10° S
Cosmos 1455 2.8 20:08:03 10° NNW 20:11:50 57° W 20:15:36 10° S
Cosmos 1825 Rocket 3.6 20:12:10 10° S 20:16:36 77° E 20:21:04 10° NNE
ATLAS CENTAUR R/B 1.7 20:15:23 10° NNW 20:18:59 46° NE 20:22:16 12° ESE
Cosmos 1703 3.3 20:17:19 10° S 20:21:11 85° W 20:25:05 10° N
COSMOS 2428 3.3 20:17:11 10° S 20:22:19 37° ESE 20:27:30 10° NE
Cosmos 1844 3.9 20:18:19 10° NNW 20:24:07 75° WSW 20:29:32 11° SSE
SL-24 R/B - RUBIN 2 4.5 20:19:12 10° SSW 20:25:10 64° ESE 20:31:43 10° NE
Cosmos 2322 3.8 20:20:30 10° SSW 20:26:09 64° ESE 20:31:49 10° NNE
Meteor 1-27 4.4 20:25:00 10° N 20:30:41 63° ENE 20:35:46 13° SSE
CZ-4B DEB 4.4 20:28:15 12° S 20:31:17 81° WSW 20:34:40 10° NNW
Cosmos 1709 Rocket 4.1 20:26:27 10° S 20:32:44 86° E 20:39:10 10° N
NOSS 3-3 (A) 4.2 20:29:10 10° SSW 20:34:42 47° ESE 20:40:55 10° NE
NOSS 3-3 (C) 4.2 20:29:16 10° S 20:34:49 46° ESE 20:41:02 10° NE
Terra 2.1 20:31:40 14° SSE 20:35:41 59° ENE 20:40:24 10° N
Cosmos 2237 Rocket 3.6 20:33:12 13° SE 20:36:13 20° E 20:40:16 10° NE
Atlas Centaur 2 4.1 20:33:07 10° SSW 20:36:33 15° S 20:38:47 13° SSE
CARTOSAT-1 3.6 20:32:57 13° SSE 20:36:51 89° W 20:41:12 10° NNW
Cosmos 2333 4.2 20:32:19 10° SSW 20:37:56 75° ESE 20:43:39 10° NNE
Cosmos 2219 Rocket 2.3 20:32:54 10° S 20:38:19 54° ESE 20:43:47 10° NE
IGS 5A 4.5 20:36:11 10° S 20:40:08 42° W 20:44:07 10° NNW
Cosmos 2360 Rocket 2.8 20:34:44 10° SW 20:40:18 62° WNW 20:45:58 10° NNE
Cosmos 1538 Rocket 4.2 20:35:57 10° S 20:41:09 54° ESE 20:46:21 10° NNE
Cosmos 2184 Rocket 4.5 20:42:26 14° SSE 20:47:27 46° E 20:53:25 10° NNE
Cosmos 2333 Rocket 2.2 20:42:28 10° SSW 20:48:06 68° ESE 20:53:48 10° NNE
Cosmos 1315 Rocket 2.8 20:47:05 10° N 20:51:12 84° ENE 20:54:13 18° SSE
ATLAS 2AS CENTAUR R/B 3.5 20:44:22 10° NW 20:51:54 52° NE 20:58:48 10° ESE
Resurs 01 Rocket 4.1 20:49:31 10° SW 20:52:18 16° W 20:55:06 10° NW
Cosmos-2242 4.3 20:50:32 10° NNW 20:54:31 36° W 20:58:31 10° SSW
Cosmos 1818 4.3 20:50:28 10° SW 20:55:49 57° NW 21:01:13 10° NNE
Cosmos 773 Rocket 4.2 20:52:50 10° SSW 20:58:09 77° WNW 21:03:28 10° NNE
Cosmos 2221 2.7 20:55:19 10° N 20:59:40 60° ENE 21:02:29 21° SSE
ERS-1 Rocket 3.5 20:56:51 12° S 21:01:21 55° W 21:06:20 10° NNW
GEOS 3 Rocket 4.0 20:57:09 10° NE 21:02:32 71° NW 21:07:53 10° SW
USA 215 3.2 20:59:13 10° ENE 21:05:47 71° SE 21:12:19 10° SW
Cosmos 1892 3.4 21:07:02 23° SE 21:08:44 36° E 21:12:14 10° NNE
Cosmos 2278 Rocket 2.3 21:03:26 10° NNW 21:09:08 72° ENE 21:13:09 20° SE
ATLAS 5 CENTAUR R/B 2.8 21:08:28 10° WSW 21:12:33 46° NW 21:17:14 10° NE
Cosmos 1844 Rocket 4.2 21:08:55 10° NW 21:13:29 26° WSW 21:18:02 10° SSW
Gblst 52 Del rocket 4.3 21:09:55 10° WNW 21:15:36 69° SSW 21:20:33 17° SE
Cosmos 1943 Rocket 4.3 21:12:38 10° N 21:16:39 19° NE 21:20:39 10° E
SPOT 5 3.7 21:13:56 13° S 21:18:07 44° W 21:22:45 10° NNW
SL-16 R/B 3.8 21:18:56 15° ESE 21:20:37 17° E 21:24:07 10° ENE
Lacrosse 5 rocket 3.6 21:18:03 10° NW 21:21:33 25° N 21:24:54 10° ENE
Spot 4 4.5 21:20:00 20° SE 21:22:55 45° ENE 21:27:28 10° N
Cosmos 2056 Rocket 4.4 21:18:44 10° NNW 21:23:54 43° ENE 21:27:39 18° ESE
Nadezhda 3 Rocket 4.2 21:18:36 10° N 21:24:58 65° ENE 21:29:11 22° SSE
Cosmos 2058 3.0 21:25:00 26° SSE 21:27:11 60° E 21:31:17 10° NNE
Cosmos 2154 Rocket 4.2 21:23:04 21° SSE 21:27:14 58° E 21:33:19 10° NNE
BREEZE M DEB (TANK) 4.1 21:27:08 10° WSW 21:27:38 12° SW 21:27:38 12° SW
Cosmos 1408 3.2 21:29:06 29° SE 21:30:12 38° E 21:33:33 10° NNE
Meteor 2-17 Rocket 4.4 21:27:25 18° S 21:32:00 80° E 21:38:05 10° NNE
In-Cosmos 22 Rocket 4.0 21:29:55 20° S 21:33:35 76° E 21:38:55 10° NNE
Cosmos 2074 Rocket 4.0 21:29:15 15° S 21:34:33 83° W 21:40:49 10° N
TSX-5 3.7 21:32:18 10° NW 21:35:46 73° WSW 21:37:36 31° SSE
Cosmos 1076 Rocket 3.5 21:36:08 27° S 21:38:23 71° E 21:42:39 10° NNE
Cosmos 1680 Rocket 3.7 21:35:41 23° S 21:38:56 58° ESE 21:44:10 10° NNE
USA 267 3.2 21:34:05 19° SE 21:39:04 75° SW 21:45:40 10° WNW
CZ-4C R/B 4.4 21:39:14 10° NW 21:45:06 32° NNE 21:51:52 10° E
Cosmos 2151 3.6 21:47:18 29° SE 21:48:52 40° E 21:52:54 10° NNE
COSMOS 2455 4.2 21:43:35 10° NNW 21:49:03 34° NE 21:54:31 10° ESE
EO 1 Delta rocket 4.4 21:44:22 10° NNE 21:49:22 61° E 21:52:50 25° S
Cosmos 923 Rocket 4.0 21:52:20 17° SSW 21:56:28 82° WNW 22:01:48 10° NNE
ATLAS CENTAUR R/B 2.8 21:54:53 10° WNW 21:57:34 19° WSW 21:58:26 18° SW
Cosmos 1825 2.3 21:58:09 38° SSE 21:59:18 57° E 22:03:02 10° NNE
ALOS 2 3.1 21:58:03 27° SE 22:00:07 49° ENE 22:04:22 10° N
Cosmos 1340 4.4 21:59:38 19° ESE 22:00:17 19° E 22:03:03 10° NE
Cosmos 2369 Rocket 4.0 21:56:41 10° N 22:01:17 25° NE 22:05:52 10° E
Cosmos 1151 Rocket 4.0 21:57:18 10° N 22:01:21 37° ENE 22:03:13 25° ESE
Cosmos 1980 3.6 21:56:55 17° SSW 22:01:21 88° ESE 22:07:03 10° NNE
Cosmos 44 3.8 22:05:14 30° SE 22:05:49 31° ESE 22:09:43 10° NE
COSMOS 2428 3.8 22:01:09 10° SW 22:06:32 43° NW 22:11:58 10° NNE
Cosmos 371 Rocket 4.1 22:04:20 10° NNW 22:09:01 45° ENE 22:11:47 22° ESE
GP-B 3.6 22:05:26 10° NNE 22:09:44 46° E 22:11:23 31° SE
Cosmos 1295 Rocket 4.4 22:06:31 24° S 22:10:27 88° W 22:16:36 10° N
Terra 3.8 22:10:34 10° SW 22:13:49 19° W 22:17:14 10° NW
NOSS 0 Rocket 4.2 22:07:42 10° SW 22:13:50 70° WNW 22:20:02 10° NNE
Cosmos 1624 Rocket 4.0 22:09:12 10° NNW 22:14:28 81° WSW 22:16:57 32° SSE
NOSS 3-4 (A) 3.9 22:08:14 10° NW 22:15:09 68° SW 22:19:47 26° SSE
NOSS 3-4 (C) 3.9 22:08:21 10° NW 22:15:17 69° SW 22:19:55 26° SSE
Nimbus 7 Rocket 4.5 22:13:21 10° NNE 22:19:16 65° ESE 22:22:22 29° S
SL-4 R/B 2.7 22:19:54 20° NE 22:19:54 20° NE 22:21:06 10° NNE
Cosmos 2237 Rocket 2.4 22:14:58 16° SW 22:19:40 75° WNW 22:25:24 10° NNE
Genesis I 3.1 22:18:36 31° SW 22:20:24 87° SE 22:24:18 10° NE
CREW DRAGON DEMO-1 DEB 4.0 22:22:53 30° E 22:22:53 30° E 22:24:43 10° ENE
Cosmos 1782 4.5 22:18:38 10° NNE 22:21:54 24° ENE 22:23:34 18° ESE
Cosmos 2344 3.5 22:16:02 15° SSW 22:22:25 72° SE 22:30:30 10° NE
Cosmos 2219 Rocket 3.9 22:17:37 10° WSW 22:22:34 31° NW 22:27:34 10° NNE
Cosmos 1346 Rocket 4.1 22:28:04 24° ESE 22:28:52 26° E 22:32:09 10° NE
Thor Agena Rocket 3.9 22:25:01 10° N 22:30:03 61° WNW 22:33:18 22° SW
DELTA 2 R/B (1) 4.3 22:25:56 10° SW 22:36:22 - ESE 22:30:03 30° S
Cosmos 2333 Rocket 4.2 22:28:05 10° WSW 22:32:53 27° NW 22:37:45 10° NNE
RESURS DK-1 4.5 22:36:20 10° N 22:39:40 23° NE 22:42:59 10° E
Cosmos 1515 Rocket 3.9 22:37:19 10° N 22:41:36 54° ENE 22:43:15 33° SE
BREEZE-M DEB (TANK) 2.2 22:38:55 10° WNW 22:41:22 37° WSW 22:41:22 37° WSW
ATLAS 2AS CENTAUR R/B 3.1 22:35:43 10° NW 22:42:57 51° WSW 22:46:25 29° S
EO 1 Del DPAF 4.3 22:39:39 10° N 22:43:10 38° WNW 22:45:00 23° WSW
Cosmos 1766 Rocket 3.5 22:44:24 38° SSW 22:46:04 80° W 22:50:30 10° N
USA 215 4.0 22:42:20 10° NE 22:48:44 56° NNW 22:55:06 10° W
Gbstr 26 Del rocket 3.7 22:49:28 31° ESE 22:49:28 31° ESE 22:52:32 10° ENE
Okean 3 Rocket 3.8 22:47:02 33° SSW 22:48:55 66° WNW 22:53:20 10° N
Cosmos 1328 Rocket 3.5 22:44:40 10° NNW 22:49:01 79° W 22:50:25 42° S
Aureole 2 Rocket 2.8 22:46:32 10° NW 22:48:59 39° W 22:48:59 39° W
Cosmos 1606 3.1 22:47:30 10° NNW 22:51:19 54° W 22:52:19 41° SW
Cosmos 2278 Rocket 3.9 22:48:31 10° NW 22:52:37 21° W 22:54:59 16° SW
Cosmos 2218 Rocket 4.0 22:50:54 29° S 22:54:22 89° E 23:00:43 10° N
Cosmos 2297 3.8 22:48:58 10° NNW 22:54:38 64° WSW 22:57:11 33° S
Cosmos 864 Rocket 4.5 22:52:05 30° S 22:55:22 85° E 23:01:42 10° N
Cosmos 304 Rocket 4.2 22:50:43 10° NNW 22:55:30 57° ENE 22:58:03 26° SE
Cosmos 2228 Rocket 3.9 22:52:50 10° N 22:57:16 45° ENE 22:59:19 27° SE
Cosmos 1420 Rocket 4.1 22:53:10 10° NNW 22:58:24 66° WSW 23:00:36 35° S
Cosmos 2366 rocket 4.0 22:56:35 29° S 23:00:03 87° W 23:06:27 10° N
Cosmos 1943 Rocket 2.3 22:55:40 10° NNW 23:01:23 77° ENE 23:04:40 26° SE
Lacrosse 5 rocket 2.4 22:57:37 10° NW 23:01:29 43° NNE 23:05:08 10° E
Cosmos 1633 2.9 23:01:11 45° SE 23:01:49 53° E 23:05:21 10° NNE
Landsat 4 4.1 22:59:30 10° NNE 23:03:13 51° E 23:03:59 42° SE
SL-16 R/B 2.2 23:00:47 28° SSW 23:03:58 86° WNW 23:09:42 10° NNE
Cosmos 1821 Rocket 4.5 23:05:52 26° SSE 23:09:00 49° E 23:14:50 10° NNE
YAOGAN 11 4.0 23:09:09 41° S 23:10:41 84° WSW 23:15:08 10° NNW
Cosmos 1743 Rocket 3.6 23:12:36 40° SSE 23:13:58 64° E 23:18:17 10° NNE
Cosmos 332 Rocket 3.8 23:15:02 10° NNW 23:19:47 63° WSW 23:21:28 38° S
Cosmos 1048 Rocket 4.2 23:19:32 34° S 23:21:43 62° ESE 23:26:55 10° NNE
USA 267 4.3 23:21:25 22° SW 23:22:48 24° SW 23:27:57 10° WNW
Meteor 2-3 Rocket 3.9 23:21:02 30° SSW 23:23:56 70° WNW 23:29:39 10° N
Helios 1A 3.5 23:24:53 37° SW 23:25:58 46° W 23:30:02 10° NNW
Cosmos 405 3.0 23:25:02 10° NNW 23:28:34 66° W 23:29:08 55° SSW
Meteor 1-29 4.2 23:25:39 10° NE 23:28:39 29° E 23:29:10 27° ESE
Meteor 1-10 Rocket 4.4 23:27:03 10° N 23:32:38 66° ENE 23:35:49 26° SSE
Cosmos 1452 Rocket 3.9 23:28:04 10° NNW 23:33:09 50° WSW 23:35:06 33° SSW
CZ-4C R/B 3.1 23:27:39 10° NW 23:34:43 77° NE 23:42:56 10° SE
Meteor 2-6 Rocket 4.1 23:29:34 10° N 23:35:06 81° ENE 23:37:54 30° SSE
PSLV R/B 3.5 23:30:54 10° NNE 23:35:08 74° ESE 23:36:34 40° S
Cosmos 389 Rocket 4.4 23:32:18 10° NNE 23:35:15 24° ENE 23:37:05 16° ESE
COSMOS 2455 2.9 23:29:25 10° NW 23:35:23 62° WSW 23:38:24 30° S
Cosmos 1340 3.8 23:34:23 27° WSW 23:35:40 34° WNW 23:39:10 10° N
ALOS 2 4.3 23:35:27 18° WSW 23:36:43 20° W 23:39:58 10° NW
Cosmos 1110 Rocket 4.1 23:31:53 10° NNW 23:37:12 80° ENE 23:40:16 26° SSE
Cosmos 1408 Rocket 4.4 23:35:56 27° SW 23:37:46 40° WNW 23:41:58 10° N
SL-16 R/B 3.8 23:32:24 10° SE 23:38:00 37° ENE 23:43:38 10° N
Cosmos 1603 4.0 23:36:25 31° S 23:38:56 55° ESE 23:44:30 10° NE
Cosmos 1727 Rocket 4.4 23:38:56 10° NNW 23:44:54 50° W 23:48:04 27° SSW
APEX 4.5 23:43:09 10° WNW 23:44:22 18° W 23:44:22 18° W
Resurs 1-4 Rocket 3.8 23:41:18 10° NE 23:45:31 23° E 23:48:45 14° SE
Cosmos 2369 Rocket 2.1 23:40:17 10° NNW 23:45:53 72° WSW 23:48:49 29° SSE
Cosmos 1500 Rocket 3.7 23:44:49 36° SSW 23:46:29 64° WNW 23:50:52 10° N
Cosmos 44 4.2 23:43:38 15° WSW 23:46:54 40° NW 23:51:09 10° NNE
SeaSat 1 3.7 23:45:06 10° NE 23:49:23 29° ESE 23:51:20 22° SSE
ISS -1.9 23:51:00 20° ESE 23:51:00 20° ESE 23:52:44 10° E
Helios 1B rocket 2.4 23:49:46 10° NNE 23:53:55 85° WNW 23:55:23 39° SSW
